Find Starlink 5203

NORAD ID: 54104 Int'l Des: 2022-136 Owner: SPXS Country: US Constellation: starlink operational
LEOCIRCULAR

Live Position

Loading 3D Globe...

About Starlink 5203

Description loading...

Upcoming Passes

Passes for default location (London). Set your location on the main map for personalized predictions.

Altitude History

Loading altitude history...

Two-Line Element Set

1 54104U 22136BF 26105.26995472 .00000496 00000-0 49261-4 0 9991
2 54104 53.2154 134.4616 0001162 83.7661 276.3463 15.08838466193005
Epoch: Apr 15, 2026 • Age: 29 hours

Current Status

Altitude 545.2 km
Velocity 7.60 km/s
Sub-Earth Point 51.75°N, 139.35°W
Launch Date Oct 20, 2022
Age 3.4 years
Type internet

Technical Details

Classification Payload
Mass 305.00 kg
Dry Mass 290.00 kg
Total Mass 305.00 kg
Length 0.20 m
Diameter 2.80 m
Span 9.00 m
Shape Box + pan
Manufacturer SPXS
Bus Type Starlink
Phase Status In Orbit
Owner/State SPXS/US

Most Searched